Time,TemperatureF,DewpointF,PressureIn,WindDirection,WindDirectionDegrees,WindSpeedMPH,WindSpeedGustMPH,Humidity,HourlyPrecipIn,Conditions,Clouds,dailyrainin,SoftwareType,DateUTC
2013-02-26 00:01:00,25.0,21.0,30.11,East,98,0.0,0.0,86,0.00,,,0.01,,2013-02-26 05:01:00,
2013-02-26 00:12:00,25.0,22.0,30.11,East,98,0.0,0.0,87,0.00,,,0.01,,2013-02-26 05:12:00,
2013-02-26 00:22:00,25.0,22.0,30.11,East,98,0.0,0.0,87,0.00,,,0.01,,2013-02-26 05:22:00,
2013-02-26 00:32:00,25.0,22.0,30.11,East,98,0.0,1.0,88,0.00,,,0.01,,2013-02-26 05:32:00,
2013-02-26 00:43:00,25.0,22.0,30.11,East,98,0.0,1.0,88,0.00,,,0.01,,2013-02-26 05:43:00,
2013-02-26 00:52:00,24.0,21.0,30.10,East,98,0.0,0.0,88,0.00,,,0.01,,2013-02-26 05:52:00,
2013-02-26 01:02:00,24.0,21.0,30.10,East,98,0.0,1.0,88,0.00,,,0.01,,2013-02-26 06:02:00,
2013-02-26 01:11:00,24.0,21.0,30.10,East,98,0.0,1.0,88,0.00,,,0.01,,2013-02-26 06:11:00,
2013-02-26 01:21:00,24.0,21.0,30.09,East,98,0.0,0.0,89,0.00,,,0.01,,2013-02-26 06:21:00,
2013-02-26 01:32:00,23.0,20.0,30.09,East,98,0.0,0.0,89,0.00,,,0.01,,2013-02-26 06:32:00,
2013-02-26 01:42:00,23.0,20.0,30.09,East,98,0.0,0.0,89,0.00,,,0.01,,2013-02-26 06:42:00,
2013-02-26 01:52:00,24.0,22.0,30.08,East,98,0.0,1.0,92,0.00,,,0.01,,2013-02-26 06:52:00,
2013-02-26 02:01:00,24.0,21.0,30.09,East,98,0.0,0.0,89,0.00,,,0.01,,2013-02-26 07:01:00,
2013-02-26 02:11:00,24.0,21.0,30.09,East,98,0.0,0.0,89,0.00,,,0.01,,2013-02-26 07:11:00,
2013-02-26 02:22:00,24.0,21.0,30.08,East,98,0.0,1.0,89,0.00,,,0.01,,2013-02-26 07:22:00,
2013-02-26 02:32:00,24.0,21.0,30.07,ESE,107,0.0,4.0,89,0.00,,,0.01,,2013-02-26 07:32:00,
2013-02-26 02:42:00,24.0,21.0,30.07,ESE,107,0.0,4.0,89,0.00,,,0.01,,2013-02-26 07:42:00,
2013-02-26 02:52:00,24.0,21.0,30.07,ESE,107,0.0,2.0,88,0.00,,,0.01,,2013-02-26 07:52:00,
2013-02-26 03:02:00,24.0,21.0,30.07,ESE,107,0.0,2.0,87,0.00,,,0.01,,2013-02-26 08:02:00,
2013-02-26 03:11:00,24.0,21.0,30.07,ESE,107,0.0,2.0,87,0.00,,,0.01,,2013-02-26 08:11:00,
2013-02-26 03:21:00,25.0,21.0,30.07,ESE,107,0.0,2.0,86,0.00,,,0.01,,2013-02-26 08:21:00,
2013-02-26 03:32:00,26.0,22.0,30.07,SE,141,2.0,5.0,84,0.00,,,0.01,,2013-02-26 08:32:00,
2013-02-26 03:42:00,26.0,22.0,30.07,SE,141,2.0,5.0,84,0.00,,,0.01,,2013-02-26 08:42:00,
2013-02-26 03:52:00,26.0,22.0,30.06,SE,136,0.0,2.0,83,0.00,,,0.01,,2013-02-26 08:52:00,
2013-02-26 04:02:00,26.0,22.0,30.05,East,95,2.0,6.0,83,0.00,,,0.01,,2013-02-26 09:02:00,
2013-02-26 04:11:00,26.0,22.0,30.05,East,95,2.0,6.0,83,0.00,,,0.01,,2013-02-26 09:11:00,
2013-02-26 04:21:00,25.0,21.0,30.04,East,81,0.0,4.0,83,0.00,,,0.01,,2013-02-26 09:21:00,
2013-02-26 04:32:00,25.0,21.0,30.03,East,88,0.0,3.0,83,0.00,,,0.01,,2013-02-26 09:32:00,
2013-02-26 04:43:00,25.0,21.0,30.03,East,88,0.0,3.0,83,0.00,,,0.01,,2013-02-26 09:43:00,
2013-02-26 04:52:00,25.0,21.0,30.03,SE,128,0.0,2.0,84,0.00,,,0.01,,2013-02-26 09:52:00,
2013-02-26 05:01:00,25.0,21.0,30.01,East,98,2.0,6.0,84,0.00,,,0.01,,2013-02-26 10:01:00,
2013-02-26 05:11:00,25.0,21.0,30.01,East,98,2.0,6.0,84,0.00,,,0.01,,2013-02-26 10:11:00,
2013-02-26 05:21:00,25.0,21.0,30.00,East,98,1.0,9.0,84,0.00,,,0.01,,2013-02-26 10:21:00,
2013-02-26 05:32:00,25.0,21.0,30.00,SE,128,9.0,11.0,84,0.00,,,0.01,,2013-02-26 10:32:00,
2013-02-26 05:42:00,25.0,21.0,30.00,SE,128,9.0,11.0,84,0.00,,,0.01,,2013-02-26 10:42:00,
2013-02-26 05:52:00,26.0,21.0,30.00,East,91,2.0,11.0,82,0.00,,,0.01,,2013-02-26 10:52:00,
2013-02-26 06:01:00,27.0,22.0,29.99,ESE,122,2.0,8.0,81,0.00,,,0.01,,2013-02-26 11:01:00,
2013-02-26 06:12:00,27.0,22.0,29.99,ESE,122,2.0,8.0,81,0.00,,,0.01,,2013-02-26 11:12:00,
2013-02-26 06:22:00,27.0,22.0,29.99,East,88,8.0,11.0,80,0.00,,,0.01,,2013-02-26 11:22:00,
2013-02-26 06:32:00,27.0,22.0,29.97,SE,138,6.0,11.0,80,0.00,,,0.01,,2013-02-26 11:32:00,
2013-02-26 06:42:00,27.0,22.0,29.97,SE,138,6.0,11.0,80,0.00,,,0.01,,2013-02-26 11:42:00,
2013-02-26 06:53:00,27.0,22.0,29.96,ESE,119,5.0,14.0,80,0.00,,,0.01,,2013-02-26 11:53:00,
2013-02-26 07:02:00,27.0,21.0,29.96,WNW,298,3.0,13.0,79,0.00,,,0.01,,2013-02-26 12:02:00,
2013-02-26 07:11:00,27.0,21.0,29.96,WNW,298,3.0,13.0,79,0.00,,,0.01,,2013-02-26 12:11:00,
2013-02-26 07:22:00,27.0,21.0,29.96,East,96,5.0,11.0,79,0.00,,,0.01,,2013-02-26 12:22:00,
2013-02-26 07:32:00,27.0,21.0,29.95,ESE,106,5.0,13.0,79,0.00,,,0.01,,2013-02-26 12:32:00,
2013-02-26 07:42:00,27.0,21.0,29.95,ESE,106,5.0,13.0,79,0.00,,,0.01,,2013-02-26 12:42:00,
2013-02-26 07:53:00,27.0,21.0,29.96,SE,132,7.0,13.0,78,0.00,,,0.01,,2013-02-26 12:53:00,
2013-02-26 08:02:00,27.0,21.0,29.95,East,100,6.0,9.0,78,0.00,,,0.01,,2013-02-26 13:02:00,
2013-02-26 08:11:00,27.0,21.0,29.95,East,100,6.0,9.0,78,0.00,,,0.01,,2013-02-26 13:11:00,
2013-02-26 08:22:00,28.0,22.0,29.94,ESE,107,7.0,12.0,77,0.00,,,0.01,,2013-02-26 13:22:00,
2013-02-26 08:32:00,28.0,22.0,29.95,ESE,104,4.0,11.0,77,0.00,,,0.01,,2013-02-26 13:32:00,
2013-02-26 08:42:00,28.0,22.0,29.95,ESE,104,4.0,11.0,77,0.00,,,0.01,,2013-02-26 13:42:00,
2013-02-26 08:52:00,28.0,22.0,29.95,ESE,111,3.0,12.0,77,0.00,,,0.01,,2013-02-26 13:52:00,
2013-02-26 09:01:00,28.0,22.0,29.95,ESE,109,8.0,15.0,77,0.00,,,0.01,,2013-02-26 14:01:00,
2013-02-26 09:11:00,28.0,22.0,29.95,ESE,109,8.0,15.0,77,0.00,,,0.01,,2013-02-26 14:11:00,
2013-02-26 09:22:00,28.0,22.0,29.94,ESE,118,5.0,12.0,77,0.00,,,0.01,,2013-02-26 14:22:00,
2013-02-26 09:32:00,29.0,22.0,29.93,East,80,9.0,15.0,76,0.00,,,0.01,,2013-02-26 14:32:00,
2013-02-26 09:42:00,29.0,22.0,29.93,East,80,9.0,15.0,76,0.00,,,0.01,,2013-02-26 14:42:00,
2013-02-26 09:52:00,29.0,22.0,29.94,SE,145,9.0,19.0,75,0.00,,,0.01,,2013-02-26 14:52:00,
2013-02-26 10:02:00,30.0,23.0,29.90,East,87,6.0,16.0,74,0.00,,,0.01,,2013-02-26 15:02:00,
2013-02-26 10:11:00,30.0,23.0,29.90,East,87,6.0,16.0,74,0.00,,,0.01,,2013-02-26 15:11:00,
2013-02-26 10:22:00,31.0,23.0,29.90,SE,138,17.0,26.0,72,0.00,,,0.01,,2013-02-26 15:22:00,
2013-02-26 10:32:00,31.0,23.0,29.87,East,92,8.0,21.0,72,0.00,,,0.01,,2013-02-26 15:32:00,
2013-02-26 10:42:00,31.0,23.0,29.87,East,92,8.0,21.0,72,0.00,,,0.01,,2013-02-26 15:42:00,
2013-02-26 10:52:00,32.0,23.0,29.85,East,88,7.0,24.0,70,0.00,,,0.01,,2013-02-26 15:52:00,
2013-02-26 11:01:00,32.0,23.0,29.85,ESE,123,14.0,20.0,70,0.00,,,0.01,,2013-02-26 16:01:00,
2013-02-26 11:11:00,32.0,23.0,29.85,ESE,123,14.0,20.0,70,0.00,,,0.01,,2013-02-26 16:11:00,
2013-02-26 11:22:00,32.0,23.0,29.84,SE,142,10.0,28.0,69,0.00,,,0.01,,2013-02-26 16:22:00,
2013-02-26 11:32:00,33.0,24.0,29.82,East,83,10.0,27.0,69,0.00,,,0.01,,2013-02-26 16:32:00,
2013-02-26 11:42:00,33.0,24.0,29.82,East,83,10.0,27.0,69,0.00,,,0.01,,2013-02-26 16:42:00,
2013-02-26 11:52:00,33.0,24.0,29.81,East,98,13.0,22.0,68,0.00,,,0.01,,2013-02-26 16:52:00,
2013-02-26 12:01:00,34.0,25.0,29.80,SSW,196,7.0,31.0,68,0.00,,,0.01,,2013-02-26 17:01:00,
2013-02-26 12:11:00,34.0,25.0,29.80,SSW,196,7.0,31.0,68,0.00,,,0.01,,2013-02-26 17:11:00,
2013-02-26 12:22:00,34.0,24.0,29.79,SSE,158,9.0,26.0,66,0.00,,,0.01,,2013-02-26 17:22:00,
2013-02-26 12:32:00,35.0,24.0,29.78,ESE,110,7.0,27.0,65,0.00,,,0.01,,2013-02-26 17:32:00,
2013-02-26 12:42:00,35.0,24.0,29.78,ESE,110,7.0,27.0,65,0.00,,,0.01,,2013-02-26 17:42:00,
2013-02-26 12:52:00,35.0,24.0,29.78,SSE,148,9.0,24.0,64,0.00,,,0.01,,2013-02-26 17:52:00,
2013-02-26 13:02:00,36.0,25.0,29.77,SE,128,13.0,24.0,64,0.00,,,0.00,,2013-02-26 18:02:00,
2013-02-26 13:12:00,36.0,25.0,29.77,SE,128,13.0,24.0,64,0.00,,,0.00,,2013-02-26 18:12:00,
2013-02-26 13:21:00,36.0,25.0,29.75,SE,133,17.0,28.0,64,0.00,,,0.00,,2013-02-26 18:21:00,
2013-02-26 13:32:00,36.0,25.0,29.75,SSE,153,8.0,23.0,64,0.00,,,0.00,,2013-02-26 18:32:00,
2013-02-26 13:42:00,36.0,25.0,29.75,SSE,153,8.0,23.0,64,0.00,,,0.00,,2013-02-26 18:42:00,
2013-02-26 13:53:00,37.0,26.0,29.72,ESE,122,14.0,28.0,63,0.00,,,0.00,,2013-02-26 18:53:00,
2013-02-26 14:01:00,37.0,26.0,29.71,ESE,118,12.0,32.0,63,0.00,,,0.00,,2013-02-26 19:01:00,
2013-02-26 14:11:00,37.0,26.0,29.71,ESE,118,12.0,32.0,63,0.00,,,0.00,,2013-02-26 19:11:00,
2013-02-26 14:22:00,37.0,26.0,29.69,ESE,102,9.0,18.0,65,0.00,,,0.00,,2013-02-26 19:22:00,
2013-02-26 14:32:00,37.0,26.0,29.68,East,79,12.0,22.0,64,0.00,,,0.00,,2013-02-26 19:32:00,
2013-02-26 14:42:00,37.0,26.0,29.68,East,79,12.0,22.0,64,0.00,,,0.00,,2013-02-26 19:42:00,
2013-02-26 14:52:00,37.0,27.0,29.67,East,90,5.0,24.0,66,0.00,,,0.00,,2013-02-26 19:52:00,
2013-02-26 15:01:00,37.0,26.0,29.66,ESE,107,13.0,24.0,65,0.00,,,0.00,,2013-02-26 20:01:00,
2013-02-26 15:11:00,37.0,26.0,29.66,ESE,107,13.0,24.0,65,0.00,,,0.00,,2013-02-26 20:11:00,
2013-02-26 15:22:00,37.0,26.0,29.65,SE,142,15.0,25.0,65,0.00,,,0.00,,2013-02-26 20:22:00,
2013-02-26 15:32:00,37.0,26.0,29.65,SSE,148,13.0,36.0,64,0.00,,,0.00,,2013-02-26 20:32:00,
2013-02-26 15:41:00,37.0,26.0,29.65,SSE,148,13.0,36.0,64,0.00,,,0.00,,2013-02-26 20:41:00,
2013-02-26 15:52:00,37.0,26.0,29.65,SSE,148,12.0,23.0,63,0.00,,,0.00,,2013-02-26 20:52:00,
2013-02-26 16:01:00,37.0,26.0,29.66,SSE,154,11.0,19.0,63,0.00,,,0.00,,2013-02-26 21:01:00,
2013-02-26 16:11:00,37.0,26.0,29.66,SSE,154,11.0,19.0,63,0.00,,,0.00,,2013-02-26 21:11:00,
2013-02-26 16:21:00,37.0,26.0,29.67,East,86,12.0,28.0,64,0.00,,,0.00,,2013-02-26 21:21:00,
2013-02-26 16:31:00,36.0,28.0,29.67,East,82,13.0,28.0,72,0.00,,,0.00,,2013-02-26 21:31:00,
2013-02-26 16:41:00,36.0,28.0,29.67,East,82,13.0,28.0,72,0.00,,,0.00,,2013-02-26 21:41:00,
2013-02-26 16:51:00,34.0,29.0,29.67,ESE,103,6.0,21.0,83,0.00,,,0.00,,2013-02-26 21:51:00,
2013-02-26 17:01:00,33.0,30.0,29.67,ESE,108,5.0,21.0,87,0.00,,,0.00,,2013-02-26 22:01:00,
2013-02-26 17:11:00,32.0,29.0,29.67,SSE,161,3.0,12.0,90,0.00,,,0.00,,2013-02-26 22:11:00,
2013-02-26 17:21:00,32.0,29.0,29.67,SSE,161,3.0,12.0,90,0.00,,,0.00,,2013-02-26 22:21:00,
2013-02-26 17:32:00,32.0,30.0,29.67,East,95,10.0,15.0,92,0.00,,,0.00,,2013-02-26 22:32:00,
2013-02-26 17:42:00,32.0,30.0,29.67,East,95,10.0,15.0,92,0.00,,,0.00,,2013-02-26 22:42:00,
2013-02-26 17:52:00,32.0,30.0,29.67,East,79,6.0,16.0,92,0.00,,,0.00,,2013-02-26 22:52:00,
2013-02-26 18:01:00,32.0,30.0,29.67,ESE,119,10.0,18.0,93,0.00,,,0.00,,2013-02-26 23:01:00,
2013-02-26 18:11:00,32.0,30.0,29.67,ESE,119,10.0,18.0,93,0.00,,,0.00,,2013-02-26 23:11:00,
2013-02-26 18:21:00,32.0,30.0,29.67,East,97,8.0,17.0,93,0.00,,,0.00,,2013-02-26 23:21:00,
2013-02-26 18:32:00,32.0,30.0,29.67,ENE,59,7.0,19.0,93,0.00,,,0.00,,2013-02-26 23:32:00,
2013-02-26 18:42:00,32.0,30.0,29.67,ENE,59,7.0,19.0,93,0.00,,,0.00,,2013-02-26 23:42:00,
2013-02-26 18:52:00,32.0,30.0,29.66,NE,53,9.0,20.0,93,0.00,,,0.00,,2013-02-26 23:52:00,
2013-02-26 19:01:00,32.0,30.0,29.65,ENE,76,9.0,19.0,93,0.00,,,0.00,,2013-02-27 00:01:00,
2013-02-26 19:11:00,32.0,30.0,29.65,ENE,76,9.0,19.0,93,0.00,,,0.00,,2013-02-27 00:11:00,
2013-02-26 19:22:00,32.0,30.0,29.65,East,95,17.0,30.0,92,0.00,,,0.00,,2013-02-27 00:22:00,
2013-02-26 19:32:00,32.0,30.0,29.65,ESE,112,10.0,19.0,92,0.00,,,0.00,,2013-02-27 00:32:00,
2013-02-26 19:42:00,32.0,30.0,29.65,ESE,112,10.0,19.0,92,0.00,,,0.00,,2013-02-27 00:42:00,
2013-02-26 19:52:00,32.0,30.0,29.65,East,88,11.0,22.0,92,0.00,,,0.00,,2013-02-27 00:52:00,
2013-02-26 20:01:00,32.0,30.0,29.65,ESE,104,9.0,19.0,92,0.00,,,0.00,,2013-02-27 01:01:00,
2013-02-26 20:11:00,32.0,30.0,29.65,ESE,104,9.0,19.0,92,0.00,,,0.00,,2013-02-27 01:11:00,
2013-02-26 20:22:00,32.0,30.0,29.65,East,87,6.0,15.0,93,0.00,,,0.00,,2013-02-27 01:22:00,
2013-02-26 20:32:00,32.0,30.0,29.65,ESE,115,5.0,19.0,93,0.00,,,0.00,,2013-02-27 01:32:00,
2013-02-26 20:42:00,32.0,30.0,29.65,ESE,115,5.0,19.0,93,0.00,,,0.00,,2013-02-27 01:42:00,
2013-02-26 20:52:00,32.0,30.0,29.64,ESE,102,11.0,21.0,94,0.00,,,0.00,,2013-02-27 01:52:00,
2013-02-26 21:01:00,32.0,30.0,29.63,ENE,75,10.0,20.0,94,0.00,,,0.00,,2013-02-27 02:01:00,
2013-02-26 21:15:00,32.0,30.0,29.63,ENE,75,10.0,20.0,94,0.00,,,0.00,,2013-02-27 02:15:00,
2013-02-26 21:24:00,32.0,30.0,29.62,ENE,77,12.0,18.0,94,0.00,,,0.00,,2013-02-27 02:24:00,
2013-02-26 21:32:00,32.0,30.0,29.62,ESE,112,13.0,20.0,94,0.00,,,0.00,,2013-02-27 02:32:00,
2013-02-26 21:42:00,32.0,30.0,29.62,ESE,112,13.0,20.0,94,0.00,,,0.00,,2013-02-27 02:42:00,
2013-02-26 21:52:00,32.0,30.0,29.62,ESE,103,8.0,13.0,94,0.00,,,0.00,,2013-02-27 02:52:00,
2013-02-26 22:02:00,32.0,30.0,29.61,East,82,9.0,16.0,94,0.00,,,0.00,,2013-02-27 03:02:00,
2013-02-26 22:11:00,32.0,30.0,29.61,East,82,9.0,16.0,94,0.00,,,0.00,,2013-02-27 03:11:00,
2013-02-26 22:22:00,32.0,30.0,29.60,NE,53,7.0,17.0,94,0.00,,,0.00,,2013-02-27 03:22:00,
2013-02-26 22:32:00,32.0,30.0,29.59,ESE,109,4.0,16.0,94,0.00,,,0.00,,2013-02-27 03:32:00,
2013-02-26 22:42:00,32.0,30.0,29.59,ESE,109,4.0,16.0,94,0.00,,,0.00,,2013-02-27 03:42:00,
2013-02-26 22:52:00,32.0,31.0,29.59,East,96,5.0,15.0,95,0.00,,,0.00,,2013-02-27 03:52:00,
2013-02-26 23:01:00,32.0,31.0,29.59,ENE,68,7.0,13.0,95,0.00,,,0.00,,2013-02-27 04:01:00,
2013-02-26 23:11:00,32.0,31.0,29.59,ENE,68,7.0,13.0,95,0.00,,,0.00,,2013-02-27 04:11:00,
2013-02-26 23:22:00,32.0,30.0,29.57,East,92,7.0,18.0,94,0.00,,,0.00,,2013-02-27 04:22:00,
2013-02-26 23:32:00,32.0,30.0,29.57,East,82,8.0,16.0,94,0.00,,,0.00,,2013-02-27 04:32:00,
2013-02-26 23:42:00,32.0,30.0,29.57,East,82,8.0,16.0,94,0.00,,,0.00,,2013-02-27 04:42:00,
2013-02-26 23:52:00,32.0,30.0,29.56,East,82,11.0,16.0,94,0.00,,,0.00,,2013-02-27 04:52:00,